Meteo pe oră la Alhimovo

Astăzi, 25 Iunie, Vineri

Timp Temperatura Precipitaţii Vânt Presiune Umiditate
00:00 +21°C° 1 mm 2 m/s 757 mmHg 93%
01:00 +20°C° 1 mm 2 m/s 757 mmHg 94%
02:00 +21°C° 0 mm 1 m/s 756 mmHg 96%
03:00 +21°C° 0.3 mm 1 m/s 756 mmHg 96%
04:00 +21°C° 0.3 mm 1 m/s 756 mmHg 97%
05:00 +20°C° 0.3 mm 2 m/s 756 mmHg 97%
06:00 +23°C° 0 mm 1 m/s 756 mmHg 91%
07:00 +25°C° 0 mm 1 m/s 756 mmHg 85%
08:00 +26°C° 0 mm 1 m/s 756 mmHg 78%
09:00 +28°C° 0 mm 1 m/s 756 mmHg 71%
10:00 +29°C° 0 mm 2 m/s 756 mmHg 63%
11:00 +31°C° 0 mm 2 m/s 756 mmHg 55%
12:00 +32°C° 0 mm 2 m/s 756 mmHg 52%
13:00 +32°C° 0 mm 2 m/s 755 mmHg 49%
14:00 +34°C° 0 mm 2 m/s 755 mmHg 46%
15:00 +31°C° 0.9 mm 3 m/s 755 mmHg 55%
16:00 +29°C° 0.9 mm 4 m/s 754 mmHg 64%
17:00 +27°C° 0.9 mm 5 m/s 754 mmHg 73%
18:00 +25°C° 4.1 mm 4 m/s 754 mmHg 81%
19:00 +22°C° 4.1 mm 3 m/s 754 mmHg 89%
20:00 +20°C° 4.1 mm 2 m/s 753 mmHg 97%
21:00 +19°C° 0 mm 2 m/s 754 mmHg 97%
22:00 +20°C° 0 mm 1 m/s 754 mmHg 97%
23:00 +20°C° 0 mm 1 m/s 755 mmHg 98%

Mâine, 26 Iunie, Sâmbătă

Timp Temperatura Precipitaţii Vânt Presiune Umiditate
00:00 +20°C° 0 mm 1 m/s 755 mmHg 98%
01:00 +19°C° 0 mm 1 m/s 755 mmHg 98%
02:00 +18°C° 0 mm 2 m/s 755 mmHg 98%
03:00 +20°C° 0 mm 1 m/s 755 mmHg 98%
04:00 +20°C° 0 mm 1 m/s 755 mmHg 97%
05:00 +20°C° 0 mm 1 m/s 754 mmHg 97%
06:00 +22°C° 0 mm 1 m/s 755 mmHg 92%
07:00 +23°C° 0 mm 1 m/s 755 mmHg 87%
08:00 +24°C° 0 mm 2 m/s 755 mmHg 82%
09:00 +25°C° 0 mm 2 m/s 755 mmHg 75%
10:00 +26°C° 0 mm 1 m/s 755 mmHg 69%
11:00 +27°C° 0 mm 1 m/s 756 mmHg 62%
12:00 +28°C° 0.1 mm 1 m/s 755 mmHg 61%
13:00 +28°C° 0.1 mm 1 m/s 755 mmHg 60%
14:00 +29°C° 0.1 mm 2 m/s 755 mmHg 59%
15:00 +28°C° 0.1 mm 2 m/s 755 mmHg 61%
16:00 +28°C° 0.1 mm 2 m/s 755 mmHg 63%
17:00 +27°C° 0.1 mm 3 m/s 755 mmHg 65%
18:00 +26°C° 0.2 mm 2 m/s 755 mmHg 73%
19:00 +25°C° 0.2 mm 2 m/s 755 mmHg 80%
20:00 +23°C° 0.2 mm 2 m/s 755 mmHg 88%
21:00 +21°C° 0 mm 2 m/s 755 mmHg 90%
22:00 +20°C° 0 mm 2 m/s 755 mmHg 92%
23:00 +19°C° 0 mm 2 m/s 756 mmHg 95%

Poimâine, 27 Iunie, Duminică

Timp Temperatura Precipitaţii Vânt Presiune Umiditate
00:00 +19°C° 0.1 mm 2 m/s 756 mmHg 95%
01:00 +18°C° 0.1 mm 2 m/s 756 mmHg 95%
02:00 +18°C° 0.1 mm 2 m/s 756 mmHg 95%
03:00 +18°C° 0.2 mm 2 m/s 756 mmHg 95%
04:00 +18°C° 0.2 mm 2 m/s 755 mmHg 95%
05:00 +18°C° 0.2 mm 2 m/s 755 mmHg 96%
06:00 +19°C° 0 mm 2 m/s 755 mmHg 91%
07:00 +20°C° 0 mm 2 m/s 755 mmHg 87%
08:00 +21°C° 0 mm 3 m/s 755 mmHg 83%
09:00 +21°C° 0.3 mm 3 m/s 755 mmHg 82%
10:00 +22°C° 0.3 mm 3 m/s 755 mmHg 80%
11:00 +22°C° 0.3 mm 3 m/s 755 mmHg 79%
12:00 +22°C° 0.5 mm 3 m/s 755 mmHg 79%
13:00 +21°C° 0.5 mm 2 m/s 755 mmHg 78%
14:00 +21°C° 0.5 mm 2 m/s 755 mmHg 78%
15:00 +23°C° 0 mm 2 m/s 755 mmHg 74%
16:00 +23°C° 0 mm 2 m/s 755 mmHg 71%
17:00 +24°C° 0 mm 2 m/s 755 mmHg 68%
18:00 +23°C° 0 mm 1 m/s 755 mmHg 71%
19:00 +22°C° 0 mm 1 m/s 755 mmHg 75%
20:00 +19°C° 0 mm 0 m/s 755 mmHg 78%
21:00 +20°C° 0 mm 1 m/s 755 mmHg 80%
22:00 +19°C° 0 mm 1 m/s 755 mmHg 82%
23:00 +18°C° 0 mm 2 m/s 755 mmHg 84%

28 Iunie, Luni

Timp Temperatura Precipitaţii Vânt Presiune Umiditate
00:00 +17°C° 0 mm 2 m/s 755 mmHg 86%
01:00 +17°C° 0 mm 2 m/s 755 mmHg 88%
02:00 +16°C° 0 mm 2 m/s 755 mmHg 90%
03:00 +16°C° 0 mm 2 m/s 755 mmHg 89%
04:00 +17°C° 0 mm 2 m/s 755 mmHg 88%
05:00 +17°C° 0 mm 2 m/s 755 mmHg 86%
06:00 +18°C° 0 mm 2 m/s 755 mmHg 79%
07:00 +20°C° 0 mm 2 m/s 755 mmHg 71%
08:00 +21°C° 0 mm 3 m/s 755 mmHg 63%
09:00 +24°C° 0 mm 3 m/s 755 mmHg 60%
10:00 +25°C° 0 mm 3 m/s 755 mmHg 57%
11:00 +26°C° 0 mm 3 m/s 755 mmHg 54%
12:00 +26°C° 0 mm 3 m/s 755 mmHg 53%
13:00 +27°C° 0 mm 4 m/s 755 mmHg 52%
14:00 +27°C° 0 mm 4 m/s 755 mmHg 51%
15:00 +27°C° 0 mm 4 m/s 755 mmHg 52%
16:00 +27°C° 0 mm 3 m/s 755 mmHg 52%
17:00 +27°C° 0 mm 3 m/s 755 mmHg 53%
18:00 +25°C° 0 mm 3 m/s 755 mmHg 59%
19:00 +24°C° 0 mm 2 m/s 755 mmHg 65%
20:00 +21°C° 0 mm 2 m/s 755 mmHg 71%
21:00 +20°C° 0 mm 2 m/s 755 mmHg 74%
22:00 +19°C° 0 mm 2 m/s 755 mmHg 76%
23:00 +18°C° 0 mm 2 m/s 755 mmHg 78%

29 Iunie, Marţi

Timp Temperatura Precipitaţii Vânt Presiune Umiditate
00:00 +17°C° 0 mm 2 m/s 755 mmHg 79%
01:00 +17°C° 0 mm 2 m/s 755 mmHg 80%
02:00 +16°C° 0 mm 2 m/s 755 mmHg 81%
03:00 +16°C° 0 mm 2 m/s 755 mmHg 81%
04:00 +16°C° 0 mm 2 m/s 755 mmHg 80%
05:00 +17°C° 0 mm 2 m/s 755 mmHg 79%
06:00 +18°C° 0 mm 2 m/s 755 mmHg 73%
07:00 +20°C° 0 mm 2 m/s 755 mmHg 68%
08:00 +22°C° 0 mm 3 m/s 755 mmHg 62%
09:00 +24°C° 0 mm 3 m/s 755 mmHg 57%
10:00 +26°C° 0 mm 3 m/s 754 mmHg 52%
11:00 +27°C° 0 mm 4 m/s 754 mmHg 48%
12:00 +27°C° 0 mm 4 m/s 754 mmHg 46%
13:00 +28°C° 0 mm 4 m/s 754 mmHg 44%
14:00 +28°C° 0 mm 4 m/s 754 mmHg 43%
15:00 +28°C° 0 mm 4 m/s 754 mmHg 45%
16:00 +27°C° 0 mm 4 m/s 754 mmHg 48%
17:00 +27°C° 0 mm 4 m/s 753 mmHg 50%
18:00 +25°C° 0 mm 3 m/s 753 mmHg 57%
19:00 +24°C° 0 mm 3 m/s 753 mmHg 63%
20:00 +21°C° 0 mm 2 m/s 753 mmHg 69%
21:00 +20°C° 0 mm 2 m/s 753 mmHg 71%
22:00 +19°C° 0 mm 2 m/s 753 mmHg 74%
23:00 +18°C° 0 mm 2 m/s 753 mmHg 77%

30 Iunie, Miercuri

Timp Temperatura Precipitaţii Vânt Presiune Umiditate
00:00 +17°C° 0 mm 2 m/s 753 mmHg 79%
01:00 +17°C° 0 mm 2 m/s 754 mmHg 80%
02:00 +16°C° 0 mm 2 m/s 754 mmHg 82%
03:00 +16°C° 0 mm 2 m/s 754 mmHg 81%
04:00 +16°C° 0 mm 2 m/s 754 mmHg 80%
05:00 +16°C° 0 mm 2 m/s 754 mmHg 79%
06:00 +18°C° 0 mm 2 m/s 754 mmHg 71%
07:00 +20°C° 0 mm 3 m/s 754 mmHg 64%
08:00 +22°C° 0 mm 3 m/s 754 mmHg 56%
09:00 +25°C° 0 mm 3 m/s 754 mmHg 50%
10:00 +26°C° 0 mm 4 m/s 753 mmHg 45%
11:00 +28°C° 0 mm 4 m/s 753 mmHg 40%
12:00 +28°C° 0 mm 4 m/s 753 mmHg 39%
13:00 +29°C° 0 mm 4 m/s 753 mmHg 39%
14:00 +29°C° 0 mm 4 m/s 753 mmHg 39%
15:00 +29°C° 0 mm 4 m/s 753 mmHg 41%
16:00 +29°C° 0 mm 4 m/s 753 mmHg 43%
17:00 +29°C° 0 mm 4 m/s 753 mmHg 45%
18:00 +27°C° 0 mm 4 m/s 753 mmHg 50%
19:00 +25°C° 0 mm 3 m/s 754 mmHg 56%
20:00 +22°C° 0 mm 3 m/s 754 mmHg 62%
21:00 +21°C° 0 mm 3 m/s 754 mmHg 64%
22:00 +20°C° 0 mm 2 m/s 754 mmHg 67%
23:00 +18°C° 0 mm 2 m/s 754 mmHg 70%
Arată mai mult

Formular de consimțământ

Meteoprog și furnizorii noștri de servicii pot stoca și accesa date personale, precum cookies, identificatori de dispozitiv sau alte tehnologii similare pe dispozitivul dumneavoastră și procesa astfel de date pentru a personaliza conținutul și reclamele, dar și pentru a oferi caracteristici de social media și pentru a analiza traficul.

  • Stocarea și/sau accesarea informațiilor pe dispozitivul dumneavoastră

    Cookies, identificatori de dispozitiv sau alte informații pot fi stocate sau accesate pe dispozitiv în scopurile indicate mai sus.

  • Reclame și conținut personalizat, evaluarea reclamelor și a conținutului, informații despre audiențe și dezvoltarea produselor

    Reclamele și conținutul pot fi personalizate pe baza unui profil. Pot fi adăugate date suplimentare pentru a personaliza mai bine reclamele și conținutul. Performanța reclamelor și conținutului poate fi măsurată. Pot fi obținute informații despre utilizatorii care au văzut reclamele și conținutul. Aceste date pot fi utilizate pentru a dezvolta sau îmbunătăți experiența utilizatorilor, sistemele și software-ul.

Dând clic pe ‘Sunt de acord’, permiteți utilizarea cookie-urilor menționate, a identificatorilor de dispozitiv, balizelor web sau altor tehnologii similare. Setările pot fi modificate din browser-ul dispozitivului dumneavoastră.

În anumite scopuri, interesele legitime pot prima asupra consimțământului. Puteți citi mai multe informații în acest sens în Politica privind Confidențialitatea Datelor și Cookie.